STARLINK-31024, 58786

Orbit data source: Space-Track

STARLINK-31024, 58786 is a payload satellite owned by SpaceX/Seattle (US) in LEO that was launched on Sun, 14 Jan 2024 UTC via an FALCON 9 launch vehicle from the Air Force Western Test Range (AFWTR). Payload-class satellites include a variety of spacecraft equipped with specific instruments for various scientific and technological missions. These include communications satellites like Starlink; space stations such as the ISS; scientific satellites like the Hubble; Earth observation satellites from companies like Planet Labs, Umbra, and HawkEye 360; GPS; miniature CubeSats for education and research; and military/defense satellites.

Loading next visibility...
Identifier
58786, 2024-011X
Orbit
LEO
Country
Flag of USUS
Related business
Manufacturer
SpaceX/Seattle
Mission
Operational Commercial Communications
Bus & Motor
STARLINK V2M, Unknown motor
Mass
730 kg wet, ~700 kg dry
Launch date (UTC)
2024-01-14 (2 years ago)
Launch vehicle
FALCON 9
Launch site
Air Force Western Test Range (AFWTR)
Object type
Payload
Rocket body
Debris
Shape & HBR
Box + 2 Pan, 17.7 m
Radar Cross Section
33.884 m², Large (>1 m²)

Expand to show TLE details & history
Last TLE update: 2 days ago

TLE from 2 days ago
0 STARLINK-31024
1 58786U 24011X   26171.39965204  .00000164  00000-0  17676-4 0  9999
2 58786  53.1603 254.6269 0001224  93.0851 267.0290 15.30193820136023
Epoch: 2026-06-20T09:35Z
TLE epoch observation values (Epoch: 2026-06-20T09:35:29.936Z)
Latitude
Longitude
-157.86266°
Altitude
476.177 km
Speed
7.629 km/s
True Right ascension
16h 58m 30s
True Declination
0° 00' 00"
Sunlit
Object was in full shadow at epoch
Visualization orbit readout
Latitude
Unknown
Longitude
Unknown
Altitude
Unknown
Speed
Unknown
Apparent Right ascension
Unknown
Apparent Declination
Unknown
Sunlit
N/A
Visualization observer readout
Local Sidereal Time
21:24:54
Azimuth
Unknown
Elevation
Unknown
Doppler factor
Unknown
Orbital elements
Apogee altitude
476.329 km
Perigee altitude
474.651 km
Semi-major axis
6,853.627 km
Eccentricity
0.00012
Inclination
53.1603°
RAAN
254.6269°
Arg. of periapsis
93.0851°
True anomaly
267.01499°
Mean anomaly
267.029°
Eccentric anomaly
267.022°
Mean motion
3.82527 °/min
Orbital period
94.11 mins
BSTAR
0.000017676
Loading maneuver chart data...
Computing Atmospheric mass density...
Loading historical data...
Loading historical data...
Loading historical data...
Loading historical data...
Loading historical data...
Loading historical data...
Loading historical data...

Documentation

Showing up to 5 results
|